[[{"header":{"parameterUnit":"m.s-1","parameterCategory":1,"la1":30.2991,"la2":30.254,"lo1":-89.0895,"lo2":-89.0444,"dy":0.0017,"dx":0.0017,"nx":28,"ny":28,"refTime":"2024-05-06T09:00:00:Z","depth":0,"parameterNumber":2,"parameterNumberName":"U-component_of_WINDS"},"data":[0,0,0,0,0,0,0,0,0,0,0,0,0,0,0,0,0,0,0,0,0,0,0,0,0,0,0,0,0,0,0,0,0,0,0,0,0,0,0,0,0,0,0,0,0,0,0,0,0,0,0,0,0,0,0,0,0,0,-2.1076,-2.1076,0,-2.1097,-2.1098,-2.1098,-2.1091,-2.1091,-2.109,-2.109,-2.1112,-2.1113,-2.1114,0,0,0,0,0,0,0,0,0,0,0,0,0,-2.1029,-2.103,-2.1076,-2.1076,-2.1076,-2.1097,-2.1098,-2.1098,-2.1091,-2.1091,-2.109,-2.109,-2.1111,-2.1113,-2.1114,0,0,0,0,0,0,0,0,0,0,0,0,0,-2.105,-2.1031,-2.1076,-2.1076,-2.1076,-2.1097,-2.1098,-2.1098,-2.1091,-2.1091,-2.109,-2.1089,-2.1111,-2.1112,-2.1114,-2.1137,0,0,-2.1119,-2.1119,0,0,0,0,0,0,0,0,-2.1049,-2.1052,-2.1075,-2.1076,-2.1076,-2.1091,-2.1089,-2.1111,-2.1091,-2.1085,-2.109,-2.1089,-2.1105,-2.1107,-2.1113,-2.1138,-2.1139,-2.1119,-2.112,-2.112,-2.1121,0,0,0,0,0,0,0,-2.1048,-2.1051,-2.1084,-2.1076,-2.1076,-2.1075,-2.1077,-2.1093,-2.1099,-2.1086,-2.1085,-2.1088,-2.1105,-2.1111,-2.1113,-2.1139,-2.1119,-2.112,-2.1121,-2.1122,-2.1185,-2.1185,0,0,0,0,0,0,-2.1046,-2.105,-2.1084,-2.1085,-2.106,-2.1076,-2.1078,-2.1087,-2.1099,-2.11,-2.1089,-2.1088,-2.1109,-2.1112,-2.1114,-2.1141,-2.112,-2.1122,-2.1123,-2.1184,-2.1185,-2.1186,0,0,0,0,0,0,-2.1045,-2.1049,-2.1083,-2.1067,-2.1072,-2.1077,-2.1087,-2.1088,-2.1093,-2.1101,-2.1102,-2.1094,-2.1109,-2.1112,-2.1131,-2.1142,-2.1122,-2.1124,-2.1183,-2.1184,-2.1185,-2.1197,0,0,0,0,0,0,-2.1044,-2.1049,-2.1057,-2.1068,-2.1072,-2.11,-2.1088,-2.1088,-2.1096,-2.1095,-2.1106,-2.1107,-2.1108,-2.1129,-2.1133,-2.1144,-2.1125,-2.1182,-2.1183,-2.1185,-2.1195,-2.1198,-2.1201,0,0,0,0,0,-2.1042,-2.106,-2.1058,-2.1062,-2.1083,-2.11,-2.1103,-2.1104,-2.1097,-2.1106,-2.1111,-2.1107,-2.1141,-2.1131,-2.1135,-2.1147,-2.1181,-2.1183,-2.1185,-2.1194,-2.1198,-2.12,0,0,0,0,0,0,-2.1051,-2.1061,-2.1059,-2.1081,-2.109,-2.1099,-2.111,-2.1108,-2.1119,-2.1118,-2.1119,-2.1121,-2.1141,-2.1146,-2.1135,-2.117,-2.116,-2.1163,-2.1166,-2.1169,-2.1171,-2.1169,-2.1126,0,0,0,0,0,-2.1055,-2.1068,-2.1077,-2.1095,-2.11,-2.1104,-2.1112,-2.1112,-2.1121,-2.1125,-2.1131,-2.114,-2.1153,-2.1162,-2.1174,-2.1197,-2.1199,-2.1207,-2.1209,-2.1211,-2.1213,-2.1225,-2.1229,-2.1191,-2.1191,-2.1191,0,0,-2.1065,-2.1072,-2.108,-2.1097,-2.1104,-2.1117,-2.1107,-2.1122,-2.1132,-2.1127,-2.1146,-2.1151,-2.1161,-2.1182,-2.1192,-2.1187,-2.1224,-2.1213,-2.1215,-2.1216,-2.1227,-2.1231,-2.1234,-2.1192,-2.1192,-2.1192,0,0,-2.1088,-2.1095,-2.1111,-2.1118,-2.1129,-2.1132,-2.1136,-2.1146,-2.1149,-2.1168,-2.1165,-2.1177,-2.1199,-2.1206,-2.1213,-2.124,-2.1236,-2.1244,-2.1257,-2.1269,-2.1272,-2.1274,-2.1283,-2.1286,-2.1246,-2.1246,-2.1246,0,-2.1098,-2.1118,-2.1119,-2.1134,-2.1142,-2.1138,-2.1154,-2.1162,-2.1176,-2.1181,-2.1176,-2.1203,-2.121,-2.1233,-2.1239,-2.1245,-2.1249,-2.1242,-2.1271,-2.1274,-2.1276,-2.1285,-2.1288,-2.1247,-2.1247,-2.1247,-2.1247,0,-2.113,-2.1144,-2.1155,-2.1169,-2.1178,-2.1193,-2.1197,-2.1206,-2.1206,-2.1209,-2.1228,-2.1237,-2.125,-2.1256,-2.1256,-2.1279,-2.1275,-2.1271,-2.126,-2.128,-2.1288,-2.1292,-2.1248,-2.1248,-2.1247,-2.1247,0,0,-2.1159,-2.1173,-2.1177,-2.1183,-2.1195,-2.1206,-2.1221,-2.1235,-2.1242,-2.1252,-2.1265,-2.1284,-2.128,-2.1287,-2.1288,-2.1299,-2.1319,-2.1292,-2.1293,-2.1296,-2.1344,-2.1347,-2.1351,-2.1317,-2.1318,-2.1318,-2.1343,0,-2.1183,-2.1209,-2.1211,-2.1235,-2.1248,-2.1245,-2.1259,-2.1267,-2.1272,-2.1283,-2.1288,-2.1301,-2.1294,-2.1299,-2.1309,-2.1314,-2.1328,-2.1313,-2.1329,-2.1329,-2.1325,-2.1355,-2.1358,-2.1381,-2.1346,-2.1347,-2.1347,0,-2.1214,-2.1225,-2.125,-2.126,-2.1266,-2.1277,-2.129,-2.1301,-2.1311,-2.1313,-2.1322,-2.1321,-2.1337,-2.1327,-2.1349,-2.1338,-2.1345,-2.1349,-2.135,-2.135,-2.1339,-2.1356,-2.1389,-2.1392,-2.1352,-2.1352,-2.1352,0,-2.1232,-2.1253,-2.1271,-2.1276,-2.1288,-2.1297,-2.1302,-2.1312,-2.1319,-2.1331,-2.1336,-2.1349,-2.1355,-2.1365,-2.1368,-2.1361,-2.139,-2.138,-2.1392,-2.1392,-2.1397,-2.1397,-2.143,-2.1403,-2.1403,-2.1403,-2.1403,0,-2.1258,-2.1273,-2.1279,-2.129,-2.1307,-2.1309,-2.1326,-2.1331,-2.134,-2.1351,-2.135,-2.1362,-2.1365,-2.1377,-2.138,-2.1397,-2.14,-2.1402,-2.1403,-2.1402,-2.1402,-2.1406,-2.1404,-2.1404,-2.1404,-2.1404,-2.1404,0,-2.128,-2.1285,-2.1304,-2.1314,-2.1317,-2.1329,-2.1338,-2.1348,-2.1352,-2.1367,-2.1371,-2.1377,-2.1391,-2.1395,-2.1412,-2.1414,-2.1434,-2.1433,-2.143,-2.143,-2.1441,-2.144,-2.1478,-2.1483,-2.1454,-2.1454,-2.1454,0,-2.1296,-2.1308,-2.1319,-2.1327,-2.1333,-2.1346,-2.1354,-2.1357,-2.1365,-2.1377,-2.1386,-2.14,-2.1411,-2.1433,-2.144,-2.1453,-2.1452,-2.1464,-2.1454,-2.1452,-2.1451,-2.145,-2.1451,-2.1466,-2.1466,-2.1467,-2.1467,0,-2.1324,-2.1326,-2.1337,-2.135,-2.1359,-2.1369,-2.1379,-2.1385,-2.1389,-2.1399,-2.1413,-2.1422,-2.1439,-2.1452,-2.1465,-2.1471,-2.147,-2.147,-2.1473,-2.1472,-2.147,-2.1471,-2.1435,-2.1469,-2.1469,-2.1469,-2.1469,-2.1468,-2.1344,-2.1354,-2.1363,-2.1376,-2.1383,-2.1392,-2.1403,-2.1408,-2.142,-2.1434,-2.1435,-2.145,-2.146,-2.1477,-2.1484,-2.1496,-2.1492,-2.1497,-2.1498,-2.1499,-2.15,-2.1469,-2.1498,-2.1498,-2.1498,-2.1498,-2.1498,0,-2.1371,-2.1377,-2.1389,-2.1402,-2.1412,-2.141,-2.142,-2.1429,-2.1442,-2.1451,-2.1462,-2.1478,-2.1491,-2.1499,-2.1512,-2.152,-2.152,-2.1523,-2.1522,-2.1524,-2.1502,-2.1498,-2.1524,-2.1524,-2.1524,-2.1524,-2.1524,-2.1524,-2.1386,-2.1403,-2.1406,-2.1426,-2.1432,-2.1447,-2.1453,-2.1461,-2.1469,-2.1486,-2.1497,-2.1502,-2.1511,-2.1524,-2.1536,-2.1538,-2.1543,-2.1547,-2.1548,-2.1528,-2.1525,-2.1523,-2.1519,-2.1548,-2.1548,-2.1568,-2.1569,-2.1569]},{"header":{"parameterUnit":"m.s-1","parameterCategory":1,"la1":30.2991,"la2":30.254,"lo1":-89.0895,"lo2":-89.0444,"dy":0.0017,"dx":0.0017,"nx":28,"ny":28,"refTime":"2024-05-06T09:00:00:Z","depth":0,"parameterNumber":3,"parameterNumberName":"V-component_of_WINDS"},"data":[0,0,0,0,0,0,0,0,0,0,0,0,0,0,0,0,0,0,0,0,0,0,0,0,0,0,0,0,0,0,0,0,0,0,0,0,0,0,0,0,0,0,0,0,0,0,0,0,0,0,0,0,0,0,0,0,0,0,5.5906,5.5906,0,5.5901,5.5901,5.5901,5.5813,5.581,5.5808,5.5806,5.5801,5.5803,5.5805,0,0,0,0,0,0,0,0,0,0,0,0,0,5.5839,5.5841,5.5906,5.5906,5.5906,5.5901,5.5901,5.5901,5.5813,5.581,5.5808,5.5805,5.58,5.5803,5.5805,0,0,0,0,0,0,0,0,0,0,0,0,0,5.5855,5.5841,5.5906,5.5861,5.5857,5.5901,5.5901,5.5901,5.5814,5.581,5.5807,5.5804,5.58,5.5802,5.5805,5.5891,0,0,5.5814,5.5816,0,0,0,0,0,0,0,0,5.5854,5.5857,5.5868,5.5864,5.586,5.5854,5.5875,5.5897,5.5814,5.583,5.5806,5.5802,5.5821,5.5822,5.5829,5.5891,5.5891,5.5815,5.5816,5.5818,5.5819,0,0,0,0,0,0,0,5.5853,5.5857,5.5904,5.5868,5.5863,5.5841,5.584,5.5879,5.5845,5.5829,5.5822,5.5823,5.5819,5.5826,5.5828,5.5891,5.5815,5.5817,5.5819,5.582,5.6022,5.6026,0,0,0,0,0,0,5.5858,5.5857,5.5904,5.5903,5.5849,5.5845,5.5844,5.5859,5.5844,5.5839,5.5826,5.5819,5.5823,5.5825,5.5828,5.5926,5.5818,5.582,5.5822,5.6019,5.6023,5.6027,0,0,0,0,0,0,5.5857,5.5863,5.5904,5.5878,5.5882,5.585,5.5868,5.5861,5.5868,5.5842,5.5835,5.584,5.582,5.5823,5.5876,5.5925,5.5822,5.5824,5.6014,5.602,5.6025,5.6125,0,0,0,0,0,0,5.5855,5.5863,5.5895,5.588,5.5884,5.5953,5.5871,5.5863,5.5874,5.5864,5.5853,5.5848,5.5818,5.5872,5.5879,5.5927,5.5827,5.601,5.6017,5.6023,5.6117,5.6133,5.6147,0,0,0,0,0,5.5853,5.5924,5.5897,5.5904,5.5923,5.5956,5.5958,5.5921,5.5878,5.591,5.5893,5.5849,5.5919,5.5878,5.5885,5.5935,5.6007,5.6015,5.6023,5.611,5.613,5.6146,0,0,0,0,0,0,5.5946,5.5921,5.5891,5.5959,5.596,5.5941,5.598,5.5943,5.5957,5.5948,5.5902,5.59,5.5959,5.5952,5.5908,5.6017,5.5955,5.5965,5.6019,5.6037,5.6052,5.6052,5.5829,0,0,0,0,0,5.5975,5.6003,5.5979,5.6042,5.6044,5.6012,5.6025,5.5997,5.5996,5.5996,5.5983,5.5984,5.6006,5.6021,5.604,5.6116,5.6112,5.6154,5.6169,5.6181,5.619,5.6228,5.6247,5.6053,5.6053,5.6053,0,0,5.6033,5.6023,5.6044,5.606,5.6057,5.6088,5.6013,5.6048,5.607,5.6001,5.605,5.604,5.6038,5.6103,5.6131,5.6099,5.6242,5.6191,5.6201,5.6203,5.6239,5.6257,5.6273,5.6059,5.6058,5.6057,0,0,5.6156,5.6152,5.6202,5.6201,5.6198,5.6177,5.619,5.6176,5.6167,5.6215,5.6163,5.6189,5.6228,5.6229,5.6234,5.6358,5.6317,5.6365,5.6442,5.6481,5.6496,5.6509,5.6552,5.6568,5.6374,5.6374,5.6375,0,5.6229,5.6273,5.6233,5.6272,5.628,5.6219,5.627,5.6271,5.6275,5.6282,5.6246,5.6294,5.6289,5.6352,5.6382,5.6389,5.6401,5.6366,5.6497,5.651,5.6522,5.6562,5.6579,5.638,5.638,5.6379,5.6378,0,5.6363,5.6394,5.6436,5.644,5.6453,5.6498,5.6465,5.6483,5.6454,5.6437,5.6486,5.6477,5.6493,5.6506,5.6479,5.6566,5.6546,5.6505,5.6441,5.6546,5.6584,5.6599,5.6388,5.6386,5.6385,5.6383,0,0,5.6543,5.6526,5.6541,5.6543,5.6535,5.6558,5.66,5.6616,5.6632,5.6637,5.6671,5.6705,5.6667,5.6673,5.6645,5.6679,5.6776,5.6633,5.6632,5.6659,5.6871,5.6902,5.6921,5.675,5.6753,5.6755,5.6871,0,5.6661,5.6731,5.6696,5.6771,5.6799,5.6742,5.6778,5.6778,5.6763,5.6784,5.6767,5.6792,5.674,5.6743,5.6774,5.6758,5.6818,5.6749,5.678,5.6782,5.6781,5.694,5.6973,5.7083,5.6886,5.6888,5.689,0,5.6807,5.6818,5.6895,5.6882,5.6893,5.6926,5.6937,5.6959,5.6957,5.6943,5.6951,5.6915,5.6955,5.6893,5.6947,5.6901,5.6912,5.6906,5.691,5.691,5.6842,5.6944,5.7117,5.7134,5.6913,5.6911,5.6909,0,5.693,5.6964,5.7014,5.7017,5.7004,5.7028,5.7024,5.7019,5.703,5.704,5.7047,5.7062,5.707,5.7082,5.7051,5.7009,5.711,5.7045,5.7099,5.71,5.7122,5.7121,5.7298,5.7131,5.7131,5.7131,5.713,0,5.7064,5.7114,5.7069,5.71,5.7154,5.7113,5.7168,5.7157,5.7153,5.7181,5.7132,5.716,5.7117,5.714,5.7116,5.7165,5.7169,5.7159,5.7152,5.7163,5.7164,5.7168,5.716,5.7135,5.7134,5.7133,5.7132,0,5.721,5.7182,5.7233,5.7216,5.7213,5.7253,5.7239,5.7266,5.7248,5.7284,5.729,5.7262,5.7286,5.7256,5.7278,5.7262,5.7328,5.731,5.7329,5.7323,5.7378,5.7373,5.7564,5.7587,5.7406,5.7408,5.7409,0,5.7298,5.7334,5.7321,5.7336,5.7334,5.7359,5.737,5.7332,5.7346,5.7347,5.7375,5.7395,5.7409,5.7451,5.7433,5.7449,5.7431,5.7496,5.7433,5.7443,5.7431,5.7429,5.7432,5.7509,5.7511,5.7513,5.7515,0,5.7455,5.7439,5.7457,5.7471,5.7486,5.7494,5.7499,5.7515,5.7475,5.7493,5.7517,5.7528,5.7551,5.7572,5.7583,5.7578,5.754,5.7535,5.7548,5.7559,5.7568,5.7563,5.7363,5.753,5.7529,5.7528,5.7527,5.7526,5.7574,5.7603,5.7598,5.762,5.762,5.7626,5.7651,5.7635,5.7655,5.767,5.7646,5.7677,5.7674,5.7685,5.7685,5.7709,5.768,5.77,5.7704,5.771,5.7718,5.7565,5.7711,5.771,5.771,5.7709,5.7709,0,5.7728,5.7722,5.7742,5.7751,5.7768,5.773,5.7734,5.7751,5.7778,5.7778,5.7793,5.7821,5.7841,5.7824,5.7841,5.7863,5.7846,5.7868,5.7866,5.7865,5.7742,5.7729,5.7882,5.7882,5.7882,5.7882,5.7882,5.7882,5.781,5.7858,5.7842,5.7889,5.7882,5.7912,5.7917,5.7922,5.7922,5.7955,5.7971,5.796,5.7954,5.7969,5.7986,5.798,5.7988,5.8017,5.8006,5.7891,5.7874,5.7858,5.7845,5.8019,5.802,5.8126,5.8127,5.8128]}]]